Location: Arboyeti
(42.1122°N, 44.6017°E)
Time: 05:21:35
(UTC+00:00)

Cosmos 1553 Rocket - Pass Details

Date: 19 April 2021
Orbit: 942 x 1007 km, 82.9° (Epoch: 09 May)

Event Time Altitude Azimuth Distance (km) Brightness Sun altitude
Exits shadow 19:34:37 61° 358° (N) 1,063 4.3 -32.9°
Drops below altitude 10° 19:39:35 10° 6° (N) 2,674 6.9 -33.3°
Sets 19:42:05 0° 8° (N) 3,628 7.8 -33.5°
